CZ-3C DEB, 40200

Orbit data source: Space-Track

CZ-3C DEB, 40200 is space debris in HEO originally from a launch on Fri, 24 Feb 2012 UTC launched from the Xichang Space Center, China (XSC). Debris objects in space refer to the collection of defunct objects orbiting the Earth. Examples of debris include non-operational satellites, rocket bodies, and fragments generated from explosions, collisions, or faulty payload assembly.

Loading next visibility...
Identifier
40200, 2012-008K
Orbit
HEO
Country
Flag of CNCN / PRC
Related business
Manufacturer
CALT
Mission
Spacecraft
Bus & Motor
Unknown
Mass
Unknown
Launch date (UTC)
2012-02-24 (14 years ago)
Launch vehicle
Unknown
Launch site
Xichang Space Center, China (XSC)
Object type
Payload
Rocket body
Debris
Shape & HBR
Unknown shape, 0.1 m
Radar Cross Section
Medium (>0.1 m² and <1 m²)

Expand to show TLE details & history
Last TLE update: 2 days ago

TLE from 2 days ago
0 CZ-3C DEB
1 40200U 12008K   26125.41750715 -.00000178  00000-0  00000-0 0  9990
2 40200  20.8421 268.2654 6975207 108.7944 334.0426  2.19223116 97787
Epoch: 2026-05-05T10:01Z
TLE epoch observation values (Epoch: 2026-05-05T10:01:12.617Z)
Latitude
0.00002°
Longitude
-105.45846°
Altitude
10,210.997 km
Speed
5.668 km/s
True Right ascension
17h 52m 32s
True Declination
0° 00' 00"
Sunlit
Object was in daylight at epoch
Visualization orbit readout
Latitude
Unknown
Longitude
Unknown
Altitude
Unknown
Speed
Unknown
Apparent Right ascension
Unknown
Apparent Declination
Unknown
Sunlit
N/A
Visualization observer readout
Local Sidereal Time
16:56:35
Azimuth
Unknown
Elevation
Unknown
Doppler factor
Unknown
Orbital elements
Apogee altitude
36,119.049 km
Perigee altitude
1,194.389 km
Semi-major axis
25,034.856 km
Eccentricity
0.69752
Inclination
20.8421°
RAAN
268.2654°
Arg. of periapsis
108.7944°
True anomaly
251.39762°
Mean anomaly
334.0426°
Eccentric anomaly
299.13376°
Mean motion
0.54793 °/min
Orbital period
657.02 mins
BSTAR
0
Loading maneuver chart data...
Computing Atmospheric mass density...
Loading historical data...
Loading historical data...
Loading historical data...
Loading historical data...
Loading historical data...
Loading historical data...
Loading historical data...

Documentation

Showing up to 5 results
|